map of RGL home
Great Circle Mapper logo
RGL - Airport
Location
City:  Rio Gallegos, Santa Cruz, Argentina
ICAO / IATA:SAWG / RGL

Details
Type:Airport (Aerodrome, Airfield)
Use:Public/Civil, Military
Latitude:5136'32"S (-51.608874)
Longitude:6918'45"W (-69.312635)
Datum:WGS 1984
Elevation:61 ft (19 m)
Variation:11.43E (WMM2015 magnetic declination)
-0.08 annual change
Runways:1
Longest:11647 × 148 ft (3550 × 45 m), paved

Time
Time Zone:UTC-3
Local Time:

Weather
METAR:SAWG 120500Z 27006KT CAVOK 07/02 Q0999
TAF:SAWG 112300Z 1200/1224 23018KT 9999 SCT035 TX18/1219Z TN05/1212Z

Related Locations
Nearby:
Farthest:UICH: 12411 mi / 19974 km
Khilok [Khilok Airport], ZAB, RU

Find:

   beyond  
but within

Other Information
Maps:
NOTAMs:
Links:
Sources:

  
flag of Argentina
flag of Santa Cruz
  

Sectional Chart

Flight Planning
at skyvector.com

Satellite Image

Google Maps Satellite view

 

Copyright © 2004-2016 Karl L. Swartz. All rights reserved.
The Great Circle Mapper name and logo are trademarks of the Great Circle Mapper.
All other trademarks mentioned herein belong to their respective owners.
Please see credits for attibutions and further copyright information.

  Follow gcmap on Facebook Follow gcmap on Twitter Follow gcmap on Google+ GCmap on LinkedIn

hCard Microformat

Geo Microformat